Notices

What's New in latest Release from April 7th, 2021:

- Updated Glossary, including Speed of Maximum Gust, and Total Hourly Precipitation

- Updated national and regional climate services offices contacts and prices information

- Addition of station inventory lists for 1981-2010, 1971-2000, and 1961-1990 Normals.

If you haven't already, please take our survey and provide feedback about our website: https://eccc.sondage-survey.ca/f/LanguageSelection.aspx?s=442ca660-fcf1-47c0-95a9-59707d6fd709

Hourly Data Report for February 19, 2003

TORONTO CITY
ONTARIO

43°40'00.000" N
79°24'00.000" W
112.50 m
6158355
71508
XTO

Download Data

Hourly Data (February 2003)
Hourly Data Report for February 19, 2003
TIME
LST
Temp Definition
°C
Dew Point Definition
°C
Rel Hum Definition
%
Precip. Amount Definition
mm

Wind Dir Definition
10's deg

Wind Spd Definition
km/h
Visibility Definition
km
Stn Press Definition
kPa
Hmdx Definition


Wind Chill Definition


Weather Definition


00:00 -0.8 -3.6 81     0 LegendMM 100.44     LegendNANA
01:00
02:00 -0.7 -3.2 83     0 LegendMM 100.39     LegendNANA
03:00 -0.5 -2.8 84     0 LegendMM 100.40     LegendNANA
04:00 -0.5 -2.6 86     0 LegendMM 100.33     LegendNANA
05:00 -0.5 -2.8 84     0 LegendMM 100.37     LegendNANA
06:00 -0.5 -3.0 83     0 LegendMM 100.41     LegendNANA
07:00 -0.5 -3.0 83     0 LegendMM 100.38     LegendNANA
08:00 -0.4 -2.7 84     0 LegendMM 100.40     LegendNANA
09:00 -0.2 -2.3 86     0 LegendMM 100.45     LegendNANA
10:00 0.0 -1.8 88     0 LegendMM 100.42     LegendNANA
11:00 0.5 -1.3 88     0 LegendMM 100.38     LegendNANA
12:00 1.1 -1.1 85     0 LegendMM 100.36     LegendNANA
13:00
14:00 2.7 -0.8 78     0 LegendMM 100.25     LegendNANA
15:00 2.8 -0.7 78     0 LegendMM 100.25     LegendNANA
16:00 2.5 -0.5 81     0 LegendMM 100.27     LegendNANA
17:00 2.2 -0.5 82     0 LegendMM 100.29     LegendNANA
18:00 2.0 -0.5 83     0 LegendMM 100.36     LegendNANA
19:00 2.0 -4.4 63     0 LegendMM 100.43     LegendNANA
20:00 1.1 -5.2 63     0 LegendMM 100.53     LegendNANA
21:00 -0.6 -6.9 62     0 LegendMM 100.65     LegendNANA
22:00 -1.4 -7.0 66     0 LegendMM 100.69     LegendNANA
23:00 -2.1 -7.1 69     0 LegendMM 100.75     LegendNANA

Notes on Data Quality.

Legend

  • E = Estimated
  • M = Missing
  • NA = Not Available*
  • [empty] = Indicates an unobserved value
Date modified: